Peoria, IL

3:33 AM CST on November 13, 2019 (GMT -0600)
Greater Peoria Regional

Weather History for KPIA - September, 2019

Change the Weather History Date:

Tuesday, September 10, 2019

  Actual Average Record
Temperature  
Mean Temperature 80 °F 69 °F  
Max Temperature 89 °F 79 °F 98 °F (2013)
Min Temperature 71 °F 58 °F 41 °F (1910)
Degree Days  
Heating Degree Days 0 1  
Month to date heating degree days 0 9  
Since 1 July heating degree days 0 15  
Cooling Degree Days 15 5  
Month to date cooling degree days 58 60  
Year to date cooling degree days 1040 967  
Growing Degree Days 30 (Base 50)    
Moisture  
Dew Point 70 °F    
Average Humidity 75    
Maximum Humidity 93    
Minimum Humidity 55    
Precipitation  
Precipitation 0.00 in 0.11 in 3.37 in (1911)
Month to date precipitation 1.37 1.11  
Year to date precipitation 34.89 26.06  
Snow  
Snow 0.00 in 0.00 in 0.00 in ()
Month to date snowfall 0.0 0.0  
Since 1 July snowfall 0.0 0.0  
Since 1 September snowfall 0.0 0.0  
Snow Depth 0.00 in    
Sea Level Pressure  
Sea Level Pressure 30.06 in    
Wind  
Wind Speed 8 mph ()    
Max Wind Speed 17 mph    
Max Gust Speed 23 mph    
Visibility 9.9 miles    
Events      
T = Trace of Precipitation, MM = Missing Value Source: Averaged Metar Reports

Daily Weather History Graph

Daily Weather History Graph

Search for Another Location

Airport or City:

Astronomy

Sep. 10, 2019 Rise Set
Actual Time 6:34 AM CDT 7:16 PM CDT
Civil Twilight 6:06 AM CDT 7:44 PM CDT
Nautical Twilight 5:34 AM CDT 8:16 PM CDT
Astronomical Twilight 5:00 AM CDT 8:50 PM CDT
Moon 5:54 PM CDT (9/10) 2:59 AM CDT (9/10)
Length of Visible Light 13h 37m
Length of Day
12h 42m
Waxing Gibbous, 89% of the Moon is Illuminated
Sep 10
Waxing Gibbous
Sep 13
Full
Sep 21
Last Quarter
Sep 28
New
Oct 5
First Quarter

Hourly Weather History & Observations

Time (CDT) Temp. Heat Index Dew Point Humidity Pressure Visibility Wind Dir Wind Speed Gust Speed Precip Events Conditions
12:54 AM 75.0 °F - 69.1 °F 82% 30.04 in 10.0 mi South 10.4 mph - N/A   Clear
1:54 AM 73.9 °F - 69.1 °F 85% 30.03 in 10.0 mi South 11.5 mph - N/A   Clear
2:54 AM 73.9 °F - 68.0 °F 82% 30.04 in 10.0 mi SSW 9.2 mph - N/A   Clear
3:54 AM 73.0 °F - 68.0 °F 84% 30.04 in 10.0 mi South 8.1 mph - N/A   Clear
4:54 AM 72.0 °F - 68.0 °F 87% 30.04 in 10.0 mi South 8.1 mph - N/A   Clear
5:54 AM 71.1 °F - 68.0 °F 90% 30.04 in 10.0 mi South 8.1 mph - N/A   Clear
6:54 AM 71.1 °F - 66.9 °F 87% 30.05 in 9.0 mi South 8.1 mph - N/A   Clear
7:54 AM 73.0 °F - 68.0 °F 84% 30.06 in 10.0 mi South 8.1 mph - N/A   Clear
8:54 AM 75.9 °F - 70.0 °F 82% 30.07 in 10.0 mi SSW 11.5 mph - N/A   Clear
9:54 AM 81.0 °F 84.9 °F 71.1 °F 72% 30.08 in 10.0 mi WSW 11.5 mph - N/A   Clear
10:54 AM 84.0 °F 89.6 °F 72.0 °F 67% 30.09 in 10.0 mi WSW 11.5 mph - N/A   Clear
11:54 AM 87.1 °F 92.8 °F 71.1 °F 59% 30.09 in 10.0 mi WSW 11.5 mph 20.7 mph N/A   Clear
12:54 PM 87.1 °F 92.0 °F 70.0 °F 57% 30.08 in 10.0 mi West 10.4 mph - N/A   Clear
1:54 PM 88.0 °F 92.9 °F 70.0 °F 55% 30.07 in 10.0 mi SW 11.5 mph - N/A   Clear
2:54 PM 88.0 °F 93.8 °F 71.1 °F 57% 30.06 in 10.0 mi SW 8.1 mph - N/A   Clear
3:54 PM 88.0 °F 93.8 °F 71.1 °F 57% 30.03 in 10.0 mi SSW 12.7 mph - N/A   Clear
4:54 PM 84.9 °F 89.4 °F 70.0 °F 61% 30.03 in 10.0 mi SSW 8.1 mph - N/A   Clear
5:54 PM 84.0 °F 89.6 °F 72.0 °F 67% 30.04 in 10.0 mi SSW 5.8 mph - N/A   Clear
6:54 PM 82.9 °F 88.0 °F 72.0 °F 69% 30.05 in 10.0 mi SSW 3.5 mph - N/A   Clear
7:54 PM 80.1 °F 83.8 °F 72.0 °F 76% 30.05 in 10.0 mi Calm Calm - N/A   Clear
8:54 PM 79.0 °F - 71.1 °F 77% 30.06 in 10.0 mi South 3.5 mph - N/A   Clear
9:54 PM 77.0 °F - 71.1 °F 82% 30.07 in 10.0 mi South 3.5 mph - N/A   Clear
10:54 PM 75.0 °F - 71.1 °F 87% 30.08 in 10.0 mi South 4.6 mph - N/A   Clear
11:54 PM 73.9 °F - 71.1 °F 91% 30.09 in 9.0 mi SSW 3.5 mph - N/A   Clear